{"data":{"norad_id":56540,"intl_designator":"2023-065AP","name":"STARLINK-6136","alt_names":[],"object_type":"PAYLOAD","status":"ACTIVE","operator":null,"country":"US","launch_date":"2023-05-14","launch_site_code":"AFETR","launch_vehicle":null,"mission":null,"orbit_class":"UNKNOWN","rcs_meters":null,"size_class":null,"mass_kg":null,"dimensions":null,"purposes":["comms"],"wikipedia_slug":null,"has_3d_model":false,"image_url":null,"decayed_at":null,"tle_current":{"epoch":"2026-09-20T05:20:33.043488Z","epoch_age_seconds":138746,"freshness":"FRESH","line1":"1 56540U 23065AP  26263.22260467 -.00000208  00000+0  19473-5 0  9993","line2":"2 56540  43.0020 208.3578 0000656 269.2594  90.8183 15.27574891186180","mean_motion":15.27574891,"eccentricity":6.56e-5,"inclination_deg":43.002,"raan_deg":208.3578,"arg_perigee_deg":269.2594,"mean_anomaly_deg":90.8183,"bstar":1.9473e-6,"rev_number":18618,"period_min":94.267063990383,"perigee_km":482.61429945478,"apogee_km":483.51448907771,"semimajor_km":6861.2013942662,"source":"CELESTRAK","updated_at":"2026-09-21T09:00:33.476719Z"}}}